Regional Weather Roundup
Issued by NWS

Home | Current Version | Previous Version | Graphics & Text | Print | Product List | Glossary On
Versions: 1 2 3 4 5 6 7 8 9 10 11 12 13 14 15 16 17 18 19 20 21 22 23 24 25 26 27 28 29 30 31 32 33 34 35 36 37 38 39 40 41 42 43 44 45 46 47 48 49 50
000
ASUS43 KIND 021609
RWRIN

WEATHER ROUNDUP FOR INDIANA
NATIONAL WEATHER SERVICE INDIANAPOLIS IN
1200 PM EDT SUN AUG 02 2015

NOTE: "FAIR" INDICATES FEW OR NO CLOUDS BELOW 12,000 FEET WITH NO
SIGNIFICANT WEATHER AND/OR OBSTRUCTIONS TO VISIBILITY.

* - STATION DOES NOT REPORT WEATHER SUCH AS PRECIPITATION OR FOG.

+ - STATION NOT QUALITY CONTROLLED BY THE NATIONAL WEATHER SERVICE.
    USE DATA WITH CAUTION...ESPECIALLY DEWPOINT AND RELATIVE
    HUMIDITY OBSERVATIONS.

INZ001>003-010>013-019-020-021700-
NORTHWEST INDIANA

CITY           SKY/WX    TMP DP  RH WIND       PRES   REMARKS
GARY /AIRPORT/ MOSUNNY   86  70  58 SW18G31   29.84F
KNOX *+        SUNNY     82  68  61 SW14      29.87F
LA PORTE +     SUNNY     86  70  59 SW20      29.87F
MICHIGAN CITY+ SUNNY     82  66  57 SW18G24   29.84F
MONTICELLO +   SUNNY     82  71  70 SW10      29.92S
RENSSELAER +   SUNNY     82  73  74 SW10G20   29.89F
VALPARAISO     SUNNY     85  69  58 SW16G25   29.87F

$$

LMZ046-743>745-021700-
SOUTHERN LAKE MICHIGAN

STATION/POSITION TIME  TEMP    WIND        PRES    WAVE
                       AIR SEA DIR/SP/G            HT
                 (UTC) (F)     (DEG/KT/KT) (MB)    (FT)
BURNS HARBOR     1520   81     230/ 18     1011.2F
MICHIGAN CITY    1500   78     190/ 18/ 22   N/A
5NW MICH CITY    1600   78 74  230/ 12/ 16   N/A     2

$$

INZ004-005-014>016-021>024-021700-
NORTH CENTRAL INDIANA

CITY           SKY/WX    TMP DP  RH WIND       PRES   REMARKS
ELKHART        SUNNY     84  66  54 SW14G20   29.87F
GOSHEN         SUNNY     82  70  66 SW15G22   29.88F
LOGANSPORT +   SUNNY     82  63  51 SW14      29.93F
PERU/GRISSOM   SUNNY     83  69  63 SW16      29.92F
ROCHESTER +    SUNNY     82  70  65 SW14      29.92F
SOUTH BEND     SUNNY     84  69  60 SW20      29.86F
WARSAW +       SUNNY     81  68  65 SW10G17   29.90F

$$

INZ006>009-017-018-025>027-021700-
NORTHEAST INDIANA

CITY           SKY/WX    TMP DP  RH WIND       PRES   REMARKS
ANGOLA *+      SUNNY     84  79  84 W12       29.89F HX  96
AUBURN +       SUNNY     81  66  61 SW7       29.92F
FORT WAYNE     MOSUNNY   82  66  58 SW13      29.93F
HUNTINGTON +   SUNNY     81  67  62 W13       29.92F

$$

INZ028-029-035-036-043>045-051>053-021700-
WEST CENTRAL INDIANA

CITY           SKY/WX    TMP DP  RH WIND       PRES   REMARKS
CRAWFORDSVL +  SUNNY     80  65  59 SW12        N/A
GREENCASTLE +  SUNNY     81  63  54 CALM      29.97F
LAFAYETTE      SUNNY     82  69  64 SW10      29.92F
TERRE HAUTE    SUNNY     84  67  56 SW6G17    29.96F

$$

INZ030>032-037>040-046>048-054>057-064-065-021700-
CENTRAL INDIANA

CITY           SKY/WX    TMP DP  RH WIND       PRES   REMARKS
COLUMBUS       SUNNY     82  54  36 SW9       29.98F
FISHERS *+     SUNNY     81  68  65 SW8       29.96
FRANKFORT +    SUNNY     82  70  67 SW10      29.96F
GREENWOOD *+   SUNNY     82  61  47 SW6       29.98F
INDIANAPOLIS   MOSUNNY   82  64  54 SW10      29.95F
-EAGLE CREEK   SUNNY     81  64  56 SW8       29.96S
KOKOMO *+      SUNNY     82  66  57 W16       29.94F
MARION +       SUNNY     80  65  59 W10       29.96S
MT COMFORT *+  SUNNY     82  59  44 SW8       29.97F
SHELBYVILLE    SUNNY     83  66  56 VRB7      29.97F
ZIONSVILLE +   SUNNY     82  66  57 W10G16    29.96F

$$

INZ033-034-041-042-049-050-058-059-021700-
EAST CENTRAL INDIANA

CITY           SKY/WX    TMP DP  RH WIND       PRES   REMARKS
MUNCIE         SUNNY     80  65  59 W8        29.96F

$$

INZ060-061-067>069-081>083-085>088-021700-
SOUTHWEST INDIANA

CITY           SKY/WX    TMP DP  RH WIND       PRES   REMARKS
EVANSVILLE     SUNNY     84  61  45 S7        29.99F
HUNTINGBURG *+ SUNNY     82  63  51 SW9       30.00S
WASHINGTON +   SUNNY     84  57  39 S8        29.97F

$$

INZ062-063-066-070>080-084-089>092-021700-
SOUTH CENTRAL AND SOUTHEAST INDIANA

CITY           SKY/WX    TMP DP  RH WIND       PRES   REMARKS
BLOOMINGTON    SUNNY     82  62  50 SW10      29.99S
MADISON *+     SUNNY     82  55  39 SW7       30.03S
NORTH VERNON + SUNNY     84  57  39 SW9       30.00F
SEYMOUR +      SUNNY     84  64  51 S7        29.99F

$$



USA.gov is the U.S. government's official web portal to all federal, state and local government web resources and services.